Simultaneous Nadir Overpasses (SNOs) Predictions

Prediction of SNOs between METOP-B and TERRA Satellite Orbit:

Table of predicted SNOs for the next 14.0 days since TLE Epoch: 5/26/2018
Index Date (METOP-B) Time (METOP-B) Lat,Lon (METOP-B) SZA (METOP-B ) Date (TERRA) Time (TERRA) Lat,Lon (TERRA) SZA (TERRA ) Distance(km) Time Diff (sec)
1 05/27/2018 10:17:58 -81.35,-106.61 116.92 05/27/2018 10:18:24 -81.34,-106.57 116.90 0.92 26
2 05/27/2018 11:08:37 81.35, 61.24 63.15 05/27/2018 11:07:50 81.35, 61.20 63.12 0.87 47
3 05/30/2018 05:52:18 -81.35, -40.04 117.35 05/30/2018 05:52:40 -81.35, -39.92 117.32 1.98 22
4 05/30/2018 06:42:57 81.35, 127.80 62.71 05/30/2018 06:42:06 81.36, 127.83 62.69 0.64 51
5 06/02/2018 01:26:38 -81.35, 26.49 117.74 06/02/2018 01:26:56 -81.36, 26.67 117.70 3.26 18
6 06/02/2018 02:17:18 81.35,-166.08 62.28 06/02/2018 02:16:23 81.34,-165.99 62.26 1.69 55
7 06/04/2018 21:00:57 -81.35, 92.98 118.08 06/04/2018 21:01:12 -81.35, 92.83 118.09 2.57 15
8 06/04/2018 21:51:37 81.35, -99.60 61.93 06/04/2018 21:50:38 81.35, -99.48 61.92 2.12 59
9 06/07/2018 16:35:17 -81.35, 159.43 118.38 06/07/2018 16:35:28 -81.35, 159.31 118.39 1.97 11




NCC Satellite Simultaneous Nadir Overpasses (SNOs) Prediction Service
